{"data":{"norad_id":66794,"epoch":"2026-09-20T21:55:39.963072Z","epoch_age_seconds":50959,"freshness":"FRESH","line1":"1 66794U 25278D   26263.91365698  .00010084  00000+0  37545-3 0  9991","line2":"2 66794  43.0024  92.0596 0001311 281.2876  78.7828 15.27581145 45062","mean_motion":15.27581145,"eccentricity":0.0001311,"inclination_deg":43.0024,"raan_deg":92.0596,"arg_perigee_deg":281.2876,"mean_anomaly_deg":78.7828,"bstar":0.00037545,"rev_number":4506,"period_min":94.266678055914,"perigee_km":482.14616645217,"apogee_km":483.94516854759,"semimajor_km":6861.1826674999,"source":"CELESTRAK","updated_at":"2026-09-21T09:00:36.013951Z"}}